JY1SAT (JO-97)

Last updated on Sun Dec 14 2025 00:03:11 GMT+0000 (Coordinated Universal Time)

1 43803U 18099AX 25347.14331003 .00023711 00000+0 89896-3 0 9997 2 43803 97.4424 44.9581 0005874 200.2714 159.8293 15.26862006385178
UTC large
Height (km)
Speed (km/s)
/
Latitude / Longitude
Inclination (degrees)
Orbital Period (minutes)
Azimuth
Elevation
Range (km)
Doppler Factor

Next 0 passes for location: London (51.5072 / 0.1276)

Sorry there are no passes over London.